Regional Weather Roundup
Issued by NWS Charleston, SC

Current Version | Previous Version | Graphics & Text | Print | Product List | Glossary On
Versions: 1 2 3 4 5 6 7 8 9 10 11 12 13 14 15 16 17 18 19 20 21 22 23 24 25 26 27 28 29 30 31 32 33 34 35 36 37 38 39 40 41 42 43 44 45 46 47 48 49 50
000
ASUS42 KCHS 252127
RWRCHS

REGIONAL WEATHER ROUNDUP
NATIONAL WEATHER SERVICE CHARLESTON SC
500 PM EDT SAT APR 25 2015

NOTE: "FAIR" INDICATES FEW OR NO CLOUDS BELOW 12,000 FEET WITH NO
SIGNIFICANT WEATHER AND/OR OBSTRUCTIONS TO VISIBILITY.

NOT ALL STATIONS ARE QUALITY CONTROLLED BY THE NATIONAL
WEATHER SERVICE. USE DATA WITH CAUTION...ESPECIALLY
DEWPOINT OBSERVATIONS.

SCZ027-030-031-034>040-042>050-252200-
...SOUTHEAST SOUTH CAROLINA...

CITY           SKY/WX    TMP DP  RH WIND       PRES   REMARKS
N CHARLESTON   PTSUNNY   77  68  73 SW13      29.70F
WATERFRONT PRK   N/A     73 N/A N/A SW15G22     N/A
MOUNT PLEASANT MOCLDY    73  68  83 MISG      29.70F
PINOPOLIS      NOT AVBL
MONCKS CORNER  MOCLDY    77  66  69 SW13G18   29.69F
SUMMERVILLE    MOCLDY    75  68  78 SW7       29.71S
BEAUFORT MCAS  PTSUNNY   78  68  71 SW15      29.71S
BEAUFORT ARPT  MOCLDY    77  70  78 SW7       29.71S
HILTON HEAD IS MOSUNNY   75  72  88 SW13G18   29.74S
WALTERBORO     PTCLDY    77  66  69 SW13G18   29.71F
ALLENDALE      FAIR      79  70  73 SW8       29.68F

...SOUTHERN MIDLANDS AND PEE DEE...

CITY           SKY/WX    TMP DP  RH WIND       PRES   REMARKS
GEORGETOWN     NOT AVBL
KINGSTREE      NOT AVBL
ORANGEBURG     PTSUNNY   76  66  71 SW13      29.69S
BARNWELL       FAIR      81  70  69 SW13      29.68F
AIKEN          FAIR      73  63  68 W8        29.72F
MANNING        MOCLDY    72  41  33 S7        29.68S
COLUMBIA       CLOUDY    74  65  73 W9        29.67F
SUMTER         CLOUDY    72  66  83 SW9       29.65F
FLORENCE       CLOUDY    69  63  81 S8        29.68F
MYRTLE BEACH   CLOUDY    72  63  73 S17G23    29.71F FOG
N MYRTLE BEACH CLOUDY    69  61  75 S13       29.71F

$$

GAZ063-065-086>088-099>101-113>116-118-119-134>141-150-252200-
...SOUTHEAST GEORGIA...

CITY           SKY/WX    TMP DP  RH WIND       PRES   REMARKS
SAVANNAH ARPT  PTSUNNY   79  69  71 SW9       29.71F
HUNTER AAF     MOSUNNY   81  72  75 SW9       29.69F
FORT STEWART   MOSUNNY   83  71  67 SW6       29.68F
STATESBORO       N/A     79  70  74 SW7       29.70F
SYLVANIA       MOCLDY    79  71  77 W3        29.70F
CLAXTON        FAIR      81  72  74 W7        29.70F HAZE

...CSRA...CENTRAL AND FAR SOUTHEAST GEORGIA...

CITY           SKY/WX    TMP DP  RH WIND       PRES   REMARKS
THOMSON        CLOUDY    79  72  78 SW7       29.73F
AUGUSTA-BUSH   CLOUDY    77  67  71 W9        29.68F
AUGUSTA-DANIEL CLOUDY    77  66  68 VRB6      29.69F
SWAINSBORO     NOT AVBL
VIDALIA        CLOUDY    82  72  69 W5        29.69F
EASTMAN        FAIR      83  73  70 W5        29.71F
HAZLEHURST     MOCLDY    86  71  60 W5        29.70S HX  91
ALMA           PTSUNNY   85  69  58 SW13      29.71F
WAYCROSS       PTSUNNY   86  75  71 SW15G23   29.72F HX  94
JESUP          MOCLDY    86  73  66 W9G18     29.72S HX  93
BAXLEY         CLOUDY    84  70  61 SW6       29.70F
BRUNSWICK      MOSUNNY   81  68  65 W13       29.74F
SAINT SIMONS   MOSUNNY   79  68  69 SW13      29.73F

$$

SCZ027-028-034-036>038-045-046-048>050-GAZ119-141-252200-
...LAKE AND SUPPLEMENTAL COASTAL OBSERVATIONS...

STATION/POSITION TIME  TEMP    WIND        PRES    WAVE   SWELL
                       AIR SEA DIR/SP/G            HT/PER HT/PER/DIR
                 (UTC) (F)     (DEG/KT/KT) (MB)    (FT/S) (FT/S/D)
UPR LAKE MARION  NOT AVBL
WINYAH BAY       2000   70     190/ 13     1006.0F
LAKE MURRAY      2000   69     240/  6/  9 1005.1F
ACE BASIN NERRS  NOT AVBL
FORT PULASKI     2100   75 70  190/  6/ 10 1006.7F
SAPELO ISLAND    2100   80     240/ 19     1006.0F

$$

ANZ835-935-AMZ111-154-330-350-352-354-370-450-454-472-252200-
...C-MAN AND BUOY OBSERVATIONS...

STATION/POSITION TIME  TEMP    WIND        PRES    WAVE   SWELL
                       AIR SEA DIR/SP/G            HT/PER HT/PER/DIR
                 (UTC) (F)     (DEG/KT/KT) (MB)    (FT/S) (FT/S/D)
BUOY 41004       2050   73 72  200/ 19/ 23 1006.0F   6/ 5   2/10
BUOY 41008       2050   71 69  210/ 16/ 19 1006.6F   3/ 4   2/120/11
FOLLY BEACH CMAN 2100   70     200/ 15/ 18 1006.1F
CAPERS NEARSHORE 2008   70     210/ 17/ 25 1006.9F
FRIPP NEARSHORE  2000   71     210/ 16/ 19 1006.3F


STATION/POSITION TIME  TEMP    WIND        PRES    WAVE   SWELL
                       AIR SEA DIR/SP/G            HT/PER HT/PER/DIR
                 (UTC) (F)     (DEG/KT/KT) (MB)    (FT/S) (FT/S/D)
5E ST. MARYS GA  2021      70                N/A     3/15   2/100/15
FRYING PAN BUOY  2050   73 71  190/ 19/ 25 1007.4F   4/ 5   2/ 70/ 9
BUOY 41025       2050   65 70  270/ 10/ 14 1007.8F   3/ 9   2/ 50/ 9
CAPE LOOKOUT NC  2100   61     150/  4/  4 1007.2F
BUOY 41002       2050   69 70  210/ 17/ 23 1011.6F   4/ 9   3/ 9
BUOY 41010       2020   78 80  190/ 17/ 19 1011.1F
ST AUGUSTINE FL  2100   71 70  130/  5/  6 1008.9F


$$


USA.gov is the U.S. government's official web portal to all federal, state and local government web resources and services.